Weather History for Jamestown, NY

Change the Weather History Date:

Wednesday, August 6, 2014

  Actual Average Record
Temperature  
Mean Temperature 65 °F -  
Max Temperature 71 °F 78 °F 91 °F (1988)
Min Temperature 59 °F 54 °F 42 °F (1978)
Growing Degree Days 15 (Base 50)    
Moisture  
Dew Point 57 °F    
Average Humidity 81    
Maximum Humidity 100    
Minimum Humidity 57    
Precipitation  
Precipitation 0.02 in - - ()
Sea Level Pressure  
Sea Level Pressure 30.03 in    
Wind  
Wind Speed 3 mph (NW)    
Max Wind Speed 13 mph    
Max Gust Speed 18 mph    
Visibility 7 miles    
Events      
Averages and records for this station are not official NWS values.
T = Trace of Precipitation, MM = Missing Value Source: NWS Daily Summary

Daily Weather History Graph

Daily Weather History Graph

Search for Another Location

Airport:

Trip Planner

Search our weather history database for the weather conditions in past years. The results will help you decide how hot, cold, wet, or windy it might be!

Date:

Astronomy

Aug. 06, 2014 Rise Set
Actual Time 6:15 AM EDT 8:29 PM EDT
Civil Twilight 5:44 AM EDT 9:00 PM EDT
Nautical Twilight 5:05 AM EDT 9:39 PM EDT
Astronomical Twilight 4:23 AM EDT 10:21 PM EDT
Moon 4:46 PM EDT (8/6) 1:48 AM EDT (8/6)
Length of Visible Light 15h 16m
Length of Day
14h 14m
Waxing Gibbous, 77% of the Moon is Illuminated
Aug 6
Waxing Gibbous
Aug 10
Full
Aug 17
Last Quarter
Aug 25
New
Sep 2
First Quarter

Hourly Weather History & Observations

Time (EDT) Temp. Dew Point Humidity Pressure Visibility Wind Dir Wind Speed Gust Speed Precip Events Conditions
12:15 AM 60.8 °F 59.0 °F 94% 30.04 in 5.0 mi Calm Calm - N/A   Mostly Cloudy
12:35 AM 60.8 °F 59.0 °F 94% 30.04 in 3.0 mi NW 3.5 mph - N/A   Overcast
12:55 AM 60.8 °F 59.0 °F 94% 30.03 in 0.5 mi NW 3.5 mph - N/A   Overcast
1:15 AM 60.8 °F 59.0 °F 94% 30.03 in 0.8 mi Calm Calm - N/A   Overcast
1:35 AM 60.8 °F 59.0 °F 94% 30.03 in 0.2 mi Calm Calm - N/A   Overcast
1:55 AM 60.8 °F 59.0 °F 94% 30.03 in 0.2 mi Calm Calm - N/A   Overcast
2:15 AM 60.8 °F 59.0 °F 94% 30.03 in 0.2 mi Calm Calm - N/A   Overcast
2:35 AM 60.8 °F 59.0 °F 94% 30.02 in 0.5 mi Calm Calm - N/A   Overcast
2:55 AM 60.8 °F 59.0 °F 94% 30.02 in 0.2 mi Calm Calm - N/A   Overcast
3:15 AM 60.8 °F 59.0 °F 94% 30.02 in 0.2 mi Calm Calm - N/A   Overcast
3:35 AM 60.8 °F 57.2 °F 88% 30.01 in 0.2 mi Calm Calm - N/A   Overcast
3:55 AM 60.8 °F 57.2 °F 88% 30.02 in 0.2 mi Calm Calm - N/A   Overcast
4:15 AM 60.8 °F 57.2 °F 88% 30.02 in 0.2 mi Calm Calm - N/A   Overcast
4:35 AM 60.8 °F 59.0 °F 94% 30.02 in 0.2 mi Calm Calm - N/A   Overcast
4:55 AM 60.8 °F 59.0 °F 94% 30.02 in 1.0 mi Calm Calm - N/A   Overcast
5:15 AM 60.8 °F 57.2 °F 88% 30.02 in 0.2 mi Calm Calm - N/A   Overcast
5:35 AM 60.8 °F 59.0 °F 94% 30.02 in 0.2 mi South 3.5 mph - N/A   Overcast
5:55 AM 60.8 °F 59.0 °F 94% 30.02 in 0.2 mi South 3.5 mph - N/A   Overcast
6:15 AM 60.8 °F 59.0 °F 94% 30.02 in 0.2 mi Calm Calm - N/A   Overcast
6:35 AM 60.8 °F 57.2 °F 88% 30.03 in 0.2 mi Calm Calm - N/A   Overcast
6:55 AM 60.8 °F 59.0 °F 94% 30.03 in 0.2 mi Calm Calm - N/A   Overcast
7:15 AM 60.8 °F 57.2 °F 88% 30.03 in 0.2 mi SSW 3.5 mph - N/A   Overcast
7:35 AM 60.8 °F 59.0 °F 94% 30.03 in 0.2 mi South 3.5 mph - N/A   Overcast
7:55 AM 60.8 °F 59.0 °F 94% 30.03 in 2.5 mi Calm Calm - N/A   Overcast
8:15 AM 60.8 °F 57.2 °F 88% 30.03 in 6.0 mi Calm Calm - N/A   Overcast
8:35 AM 60.8 °F 59.0 °F 94% 30.03 in 5.0 mi Calm Calm - N/A   Overcast
8:55 AM 60.8 °F 59.0 °F 94% 30.03 in 5.0 mi Calm Calm - N/A   Overcast
9:15 AM 60.8 °F 59.0 °F 94% 30.03 in 7.0 mi South 3.5 mph - N/A   Overcast
9:35 AM 60.8 °F 59.0 °F 94% 30.03 in 9.0 mi Calm Calm - N/A   Overcast
9:55 AM 60.8 °F 60.8 °F 100% 30.03 in 9.0 mi Calm Calm - N/A   Overcast
10:15 AM 62.6 °F 60.8 °F 94% 30.03 in 9.0 mi ENE 3.5 mph - N/A   Overcast
10:35 AM 62.6 °F 60.8 °F 94% 30.03 in 10.0 mi Calm Calm - N/A   Overcast
10:55 AM 62.6 °F 60.8 °F 94% 30.03 in 10.0 mi Calm Calm - N/A   Mostly Cloudy
11:15 AM 64.4 °F 60.8 °F 88% 30.03 in 10.0 mi Calm Calm - N/A   Mostly Cloudy
11:35 AM 66.2 °F 60.8 °F 83% 30.03 in 10.0 mi SW 4.6 mph - N/A   Mostly Cloudy
11:55 AM 68.0 °F 60.8 °F 78% 30.03 in 10.0 mi WNW 6.9 mph - N/A   Mostly Cloudy
12:15 PM 69.8 °F 60.8 °F 73% 30.03 in 10.0 mi WNW 9.2 mph - N/A   Scattered Clouds
12:35 PM 66.2 °F 59.0 °F 78% 30.03 in 10.0 mi NW 8.1 mph - 0.01 in   Mostly Cloudy
12:55 PM 66.2 °F 62.6 °F 88% 30.03 in 10.0 mi NNW 4.6 mph - 0.02 in   Mostly Cloudy
1:15 PM 69.8 °F 60.8 °F 73% 30.02 in 10.0 mi NNW 9.2 mph 16.1 mph N/A   Scattered Clouds
1:35 PM 69.8 °F 59.0 °F 68% 30.02 in 10.0 mi NNW 9.2 mph - N/A   Mostly Cloudy
1:55 PM 69.8 °F 60.8 °F 73% 30.02 in 10.0 mi NW 10.4 mph - N/A   Scattered Clouds
2:15 PM 71.6 °F 57.2 °F 60% 30.02 in 10.0 mi NW 12.7 mph 16.1 mph N/A   Clear
2:35 PM 71.6 °F 57.2 °F 60% 30.02 in 10.0 mi WNW 9.2 mph - N/A   Clear
2:55 PM 71.6 °F 57.2 °F 60% 30.01 in 10.0 mi NNW 9.2 mph 16.1 mph N/A   Clear
3:15 PM 71.6 °F 57.2 °F 60% 30.01 in 10.0 mi North 11.5 mph - N/A   Scattered Clouds
3:35 PM 71.6 °F 55.4 °F 57% 30.01 in 10.0 mi NNW 9.2 mph - N/A   Scattered Clouds
3:55 PM 69.8 °F 55.4 °F 60% 30.01 in 10.0 mi NNW 11.5 mph 16.1 mph N/A   Scattered Clouds
4:15 PM 69.8 °F 57.2 °F 64% 30.01 in 10.0 mi NNW 11.5 mph 18.4 mph N/A   Partly Cloudy
4:35 PM 69.8 °F 55.4 °F 60% 30.01 in 10.0 mi North 11.5 mph - N/A   Clear
4:55 PM 69.8 °F 57.2 °F 64% 30.01 in 10.0 mi NW 9.2 mph - N/A   Clear
5:15 PM 69.8 °F 57.2 °F 64% 30.01 in 10.0 mi NNW 10.4 mph - N/A   Clear
5:35 PM 68.0 °F 57.2 °F 68% 30.01 in 10.0 mi North 11.5 mph - N/A   Scattered Clouds
5:55 PM 66.2 °F 55.4 °F 68% 30.01 in 10.0 mi NNE 8.1 mph - N/A   Partly Cloudy
6:15 PM 66.2 °F 55.4 °F 68% 30.02 in 10.0 mi North 10.4 mph - N/A   Clear
6:35 PM 66.2 °F 53.6 °F 64% 30.02 in 10.0 mi NNW 8.1 mph - N/A   Clear
6:55 PM 66.2 °F 53.6 °F 64% 30.02 in 10.0 mi NNW 8.1 mph - N/A   Clear
7:15 PM 66.2 °F 53.6 °F 64% 30.03 in 10.0 mi North 5.8 mph - N/A   Clear
7:35 PM 66.2 °F 53.6 °F 64% 30.03 in 10.0 mi North 3.5 mph - N/A   Clear
7:55 PM 64.4 °F 53.6 °F 68% 30.03 in 10.0 mi NNW 4.6 mph - N/A   Clear
8:15 PM 64.4 °F 51.8 °F 64% 30.04 in 10.0 mi NNW 5.8 mph - N/A   Clear
8:35 PM 62.6 °F 51.8 °F 68% 30.04 in 10.0 mi NNW 4.6 mph - N/A   Clear
8:55 PM 62.6 °F 51.8 °F 68% 30.04 in 10.0 mi NW 4.6 mph - N/A   Clear
9:15 PM 60.8 °F 51.8 °F 72% 30.04 in 10.0 mi NNW 3.5 mph - N/A   Clear
9:35 PM 60.8 °F 53.6 °F 77% 30.04 in 10.0 mi NNW 3.5 mph - N/A   Clear
9:55 PM 60.8 °F 55.4 °F 82% 30.05 in 10.0 mi NNW 3.5 mph - N/A   Clear
10:15 PM 60.8 °F 55.4 °F 82% 30.05 in 10.0 mi NW 3.5 mph - N/A   Clear
10:35 PM 59.0 °F 55.4 °F 88% 30.05 in 10.0 mi NW 4.6 mph - N/A   Clear
10:55 PM 60.8 °F 55.4 °F 82% 30.05 in 10.0 mi NNW 3.5 mph - N/A   Clear
11:15 PM 60.8 °F 55.4 °F 82% 30.05 in 10.0 mi NNW 3.5 mph - N/A   Clear
11:35 PM 59.0 °F 53.6 °F 82% 30.05 in 10.0 mi WNW 3.5 mph - N/A   Clear
11:55 PM 59.0 °F 55.4 °F 88% 30.06 in 10.0 mi WNW 3.5 mph - N/A   Clear